DW0156 Weather Reports


time (UTC)temp
C
wind
direction
speed
KPH
gust
KPH
rain 1hr
cm
rain 24hr
cm
rain mn
cm
humidity
%
barometer
mb
20260905101932 13 263 11.3 25.7 0.00 0.41 0.38 80 1019.1
20260905100751 13 263 9.7 20.9 0.00 0.41 0.38 80 1018.7
20260905100257 13 263 8.0 19.3 0.00 0.41 0.38 80 1018.7
20260905095743 13 263 8.0 19.3 0.00 0.41 0.38 80 1018.6
20260905095238 13 263 9.7 19.3 0.00 0.41 0.38 80 1018.6
20260905094725 13 263 9.7 17.7 0.00 0.41 0.38 79 1018.6
20260905094227 13 263 8.0 30.6 0.00 0.41 0.38 79 1018.5
20260905093719 13 263 8.0 30.6 0.00 0.41 0.38 78 1018.5
20260905093224 13 263 12.9 30.6 0.00 0.41 0.38 77 1018.5
20260905092707 13 263 12.9 30.6 0.00 0.41 0.38 76 1018.1
20260905092205 13 263 11.3 22.5 0.00 0.41 0.38 75 1018.1
20260905091659 13 263 11.3 22.5 0.00 0.41 0.38 75 1018.1
20260905091139 13 263 9.7 27.4 0.00 0.41 0.38 75 1018.0
20260905090636 13 263 9.7 27.4 0.00 0.41 0.38 75 1018.0
20260905090143 13 263 12.9 27.4 0.00 0.41 0.38 75 1018.0
20260905084406 13 263 11.3 24.1 0.00 0.41 0.38 75 1017.2
20260905083854 13 263 11.3 29.0 0.00 0.41 0.38 74 1017.2
20260905083344 14 263 12.9 29.0 0.00 0.41 0.38 73 1017.2
20260905082203 14 263 14.5 29.0 0.00 0.41 0.38 70 1016.9
20260905081644 14 263 14.5 38.6 0.00 0.41 0.38 70 1016.9
20260905081138 14 263 14.5 38.6 0.00 0.41 0.38 70 1016.4
20260905080623 14 263 16.1 38.6 0.00 0.41 0.38 69 1016.4
20260905080126 14 263 17.7 38.6 0.00 0.41 0.38 69 1016.4
20260905075615 14 263 14.5 33.8 0.00 0.41 0.38 68 1016.1
20260905074451 14 263 14.5 32.2 0.00 0.41 0.38 69 1016.1
20260905073935 15 263 11.3 27.4 0.00 0.41 0.38 69 1015.9
20260905073433 15 263 11.3 25.7 0.00 0.41 0.38 70 1015.9
20260905072928 15 263 12.9 25.7 0.00 0.41 0.38 69 1015.9
20260905072434 15 263 12.9 25.7 0.00 0.41 0.38 68 1015.8
20260905071923 15 263 12.9 25.7 0.00 0.41 0.38 68 1015.8
20260905071416 15 263 12.9 33.8 0.00 0.41 0.38 67 1015.8
20260905070903 15 263 12.9 33.8 0.00 0.41 0.38 67 1015.7
20260905070406 15 263 14.5 33.8 0.00 0.41 0.38 66 1015.7
20260905065904 15 263 16.1 33.8 0.00 0.41 0.38 66 1015.4
20260905064755 15 263 16.1 32.2 0.00 0.41 0.38 66 1015.4
20260905064241 15 263 16.1 37.0 0.00 0.41 0.38 66 1015.4
20260905063746 15 263 17.7 37.0 0.00 0.41 0.38 67 1015.4
20260905063241 15 263 19.3 37.0 0.00 0.41 0.38 67 1015.4
20260905062720 15 263 19.3 37.0 0.00 0.41 0.38 69 1015.2
20260905062218 15 263 20.9 37.0 0.00 0.41 0.38 68 1015.2
20260905061727 15 263 19.3 37.0 0.00 0.41 0.38 68 1015.2
20260905061220 15 263 17.7 32.2 0.00 0.41 0.38 70 1015.0
20260905060713 15 263 16.1 33.8 0.00 0.41 0.38 69 1015.0
20260905055541 15 263 16.1 38.6 0.00 0.41 0.38 71 1015.0
20260905055035 14 263 17.7 38.6 0.00 0.41 0.38 73 1015.0
20260905054536 14 263 16.1 38.6 0.00 0.41 0.38 73 1015.0
20260905054046 14 263 12.9 38.6 0.00 0.41 0.38 75 1015.0
20260905053543 14 263 16.1 35.4 0.00 0.41 0.38 76 1015.0
20260905053040 14 263 19.3 35.4 0.00 0.41 0.38 74 1015.0
20260905052521 15 263 16.1 33.8 0.00 0.38 0.38 71 1014.8
20260905052003 15 263 14.5 29.0 0.00 0.38 0.36 69 1014.8
20260905051458 15 263 14.5 30.6 0.00 0.38 0.36 68 1014.8
20260905050950 15 263 14.5 30.6 0.00 0.38 0.36 69 1014.5
20260905050453 15 263 16.1 30.6 0.00 0.38 0.36 70 1014.5
20260905045941 15 263 16.1 30.6 0.00 0.38 0.36 69 1014.5
20260905045440 15 263 16.1 38.6 0.00 0.38 0.36 68 1014.2
20260905044326 16 263 16.1 38.6 0.00 0.41 0.36 67 1014.0
20260905043828 15 263 14.5 33.8 0.00 0.41 0.36 67 1014.0
20260905041427 15 263 17.7 37.0 0.00 0.41 0.36 74 1014.2
20260905040918 15 263 17.7 37.0 0.00 0.41 0.36 69 1013.8
20260905040400 16 263 14.5 40.2 0.00 0.38 0.36 63 1013.8
20260905035844 16 263 17.7 40.2 0.00 0.38 0.36 63 1013.9
20260905035333 16 263 17.7 40.2 0.00 0.38 0.36 63 1013.9
20260905034836 15 263 14.5 40.2 0.00 0.38 0.36 63 1013.9
20260905034319 15 263 11.3 35.4 0.00 0.38 0.36 67 1014.0
20260905033148 15 263 12.9 35.4 0.00 0.38 0.36 65 1014.0
20260905032655 15 263 12.9 30.6 0.00 0.38 0.36 64 1014.1
20260905032152 15 263 14.5 30.6 0.00 0.38 0.36 66 1014.1
20260905031028 15 263 12.9 30.6 0.00 0.38 0.36 71 1014.2
20260905025907 15 263 17.7 33.8 0.00 0.41 0.36 69 1013.9
20260905025402 15 263 17.7 33.8 0.00 0.41 0.36 65 1013.9
20260905024843 15 263 16.1 32.2 0.00 0.41 0.36 64 1013.9
20260905024333 16 263 14.5 30.6 0.00 0.41 0.36 63 1013.9
20260905023818 16 263 12.9 30.6 0.00 0.41 0.36 63 1013.9
20260905022654 15 263 16.1 40.2 0.00 0.41 0.36 65 1013.9
20260905021558 15 263 16.1 40.2 0.00 0.41 0.36 66 1013.9
20260905021049 15 263 16.1 32.2 0.00 0.41 0.36 65 1013.7
20260905020600 15 263 12.9 32.2 0.00 0.46 0.36 66 1013.7
20260905020044 15 263 11.3 29.0 0.00 0.46 0.36 66 1013.7
20260905015526 15 263 9.7 29.0 0.00 0.46 0.36 66 1013.5
20260905015031 15 263 9.7 29.0 0.00 0.46 0.36 66 1013.5
20260905014535 15 263 11.3 29.0 0.00 0.46 0.36 66 1013.5
20260905014017 15 263 9.7 27.4 0.00 0.46 0.36 66 1013.6
20260905013457 15 263 11.3 30.6 0.00 0.48 0.36 67 1013.6
20260905012954 15 263 14.5 30.6 0.00 0.51 0.36 67 1013.6
20260905011818 15 263 17.7 32.2 0.00 0.51 0.36 66 1013.3
20260905011304 14 263 19.3 40.2 0.00 0.51 0.36 68 1013.1
20260905010749 14 263 17.7 40.2 0.00 0.51 0.36 70 1013.1
20260905005624 13 263 12.9 40.2 0.00 0.51 0.36 79 1012.7
20260905005125 13 288 9.7 29.0 0.00 0.51 0.36 85 1012.7
20260905004606 13 263 9.7 29.0 0.00 0.51 0.36 86 1012.7
20260905004102 13 263 9.7 29.0 0.00 0.51 0.36 86 1012.7
20260905003543 13 263 9.7 29.0 0.00 0.51 0.36 86 1012.7
20260905003039 13 263 8.0 19.3 0.00 0.51 0.36 86 1012.7
20260905002520 12 263 9.7 29.0 0.08 0.51 0.36 86 1012.6
20260905002021 13 263 11.3 29.0 0.13 0.51 0.36 85 1012.6
20260905001517 13 263 9.7 30.6 0.28 0.51 0.36 85 1012.6
20260905001007 13 263 9.7 30.6 1.91 0.38 0.28 85 1012.4
20260905000505 13 263 11.3 30.6 0.00 0.36 0.20 85 1012.4
20260905000011 13 263 11.3 30.6 0.00 0.36 0.20 85 1012.4
20260904235508 13 263 11.3 25.7 0.00 0.36 0.20 85 1012.2
20260904234955 13 263 9.7 25.7 0.00 0.36 0.20 86 1012.2
20260904234442 13 263 9.7 22.5 0.00 0.36 0.20 86 1012.2
20260904233934 13 263 9.7 25.7 0.00 0.36 0.20 86 1012.1
20260904232802 12 263 8.0 25.7 0.08 0.36 0.20 85 1011.9
20260904232253 12 263 9.7 24.1 0.08 0.36 0.20 84 1011.9
20260904231755 13 263 9.7 27.4 0.18 0.36 0.20 82 1011.9
20260904231301 13 263 11.3 27.4 0.28 0.36 0.20 81 1011.5
20260904230802 14 263 9.7 27.4 0.69 0.33 0.18 80 1011.5
20260904230245 14 263 8.0 27.4 2.21 0.18 0.05 77 1011.5
20260904225735 14 263 4.8 24.1 0.00 0.18 0.00 76 1011.2
20260904225222 14 263 4.8 20.9 0.00 0.18 0.00 76 1011.2
20260904224111 14 263 4.8 24.1 0.00 0.18 0.00 76 1011.2
20260904223558 14 263 6.4 24.1 0.00 0.18 0.00 76 1011.2
20260904223052 14 263 6.4 24.1 0.00 0.18 0.00 77 1011.2
20260904222533 14 263 6.4 24.1 0.00 0.18 0.00 77 1011.1
20260904222030 13 263 6.4 22.5 0.00 0.18 0.00 78 1011.1
20260904221517 13 263 6.4 22.5 0.00 0.18 0.00 78 1011.1
20260904221007 13 263 6.4 17.7 0.00 0.18 0.00 78 1010.9
20260904220449 13 263 6.4 17.7 0.00 0.18 0.00 79 1010.9
20260904215937 13 263 4.8 16.1 0.00 0.18 0.00 79 1010.9
20260904215439 13 263 6.4 17.7 0.00 0.18 0.00 79 1010.6
20260904214942 13 263 6.4 17.7 0.00 0.18 0.00 79 1010.6
20260904213216 13 263 4.8 20.9 0.00 0.18 0.00 78 1010.6
20260904212038 14 263 4.8 22.5 0.00 0.18 0.00 78 1010.6
20260904211527 14 263 6.4 22.5 0.00 0.18 0.00 77 1010.6
20260904210402 14 263 6.4 19.3 0.00 0.18 0.00 77 1010.4
20260904205208 14 263 4.8 16.1 0.00 0.18 0.00 76 1010.4
20260904204108 14 263 4.8 24.1 0.00 0.18 0.00 75 1010.2
20260904202932 14 263 9.7 22.5 0.00 0.18 0.00 73 1010.2
20260904202432 14 263 8.0 24.1 0.00 0.18 0.00 73 1010.1
20260904201923 14 263 11.3 24.1 0.00 0.18 0.00 73 1010.1
20260904201429 14 263 12.9 30.6 0.00 0.18 0.00 73 1010.1
20260904200929 15 263 12.9 30.6 0.00 0.18 0.00 74 1010.0
20260904200431 15 263 14.5 32.2 0.00 0.18 0.00 75 1010.0
20260904195921 15 263 12.9 32.2 0.00 0.18 0.00 76 1010.0
20260904195418 15 263 11.3 32.2 0.00 0.18 0.00 77 1009.7
20260904194912 15 263 9.7 32.2 0.00 0.18 0.00 78 1009.7
20260904194408 15 263 9.7 24.1 0.00 0.15 0.00 79 1009.7
20260904193917 15 263 8.0 22.5 0.00 0.15 0.00 79 1009.5
20260904193402 15 263 6.4 22.5 0.00 0.15 0.00 80 1009.5
20260904192853 15 263 6.4 25.7 0.00 0.15 0.00 80 1009.2
20260904192345 15 263 6.4 25.7 0.00 0.15 0.00 80 1009.2
20260904191845 15 263 6.4 25.7 0.00 0.15 0.00 80 1009.2
20260904191330 15 263 4.8 25.7 0.00 0.15 0.00 80 1009.1
20260904190820 15 263 4.8 20.9 0.00 0.15 0.00 80 1009.1
20260904190307 15 263 4.8 17.7 0.00 0.15 0.00 79 1009.1
20260904185812 15 263 4.8 16.1 0.00 0.15 0.00 79 1008.9
20260904185256 15 263 3.2 20.9 0.00 0.15 0.00 79 1008.9
20260904184739 15 263 3.2 20.9 0.00 0.15 0.00 78 1008.9
20260904184235 15 263 4.8 20.9 0.00 0.15 0.00 78 1008.6
20260904183738 15 263 4.8 20.9 0.00 0.15 0.00 79 1008.6
20260904183222 15 263 3.2 12.9 0.00 0.15 0.00 80 1008.6
20260904182732 15 263 1.6 12.9 0.00 0.15 0.00 81 1008.8
20260904182221 15 263 1.6 12.9 0.00 0.15 0.00 81 1008.8
20260904181713 15 263 1.6 11.3 0.00 0.15 0.00 81 1008.8
20260904181214 15 263 1.6 11.3 0.00 0.15 0.00 81 1008.5
20260904180714 15 263 1.6 14.5 0.00 0.15 0.00 81 1008.5
20260904180216 15 263 3.2 14.5 0.00 0.15 0.00 81 1008.5
20260904175724 15 263 3.2 17.7 0.00 0.15 0.00 81 1008.4
20260904175211 15 263 1.6 17.7 0.00 0.15 0.00 81 1008.4
20260904174710 15 263 1.6 17.7 0.00 0.15 0.00 81 1008.4
20260904174207 16 263 3.2 17.7 0.00 0.15 0.00 81 1008.4
20260904173042 16 263 3.2 12.9 0.00 0.15 0.00 81 1008.4
20260904171932 16 263 3.2 8.0 0.00 0.15 0.00 81 1008.5
20260904171424 16 263 1.6 8.0 0.00 0.15 0.00 81 1008.5
20260904170932 16 263 1.6 9.7 0.00 0.15 0.00 80 1008.5
20260904170427 16 263 1.6 9.7 0.00 0.15 0.00 80 1008.5
20260904165916 16 263 1.6 9.7 0.00 0.15 0.00 80 1008.5
20260904165359 16 263 1.6 9.7 0.00 0.15 0.00 80 1008.6
20260904164248 16 263 3.2 8.0 0.00 0.15 0.00 80 1008.8
20260904163752 16 263 3.2 8.0 0.00 0.15 0.00 80 1008.8
20260904163239 16 263 3.2 8.0 0.00 0.15 0.00 80 1008.8
20260904162724 16 263 1.6 8.0 0.00 0.15 0.00 80 1008.8
20260904162232 16 263 1.6 6.4 0.00 0.15 0.00 80 1008.8
20260904161137 16 263 1.6 6.4 0.00 0.15 0.00 80 1008.5
20260904160020 16 263 0.0 0.0 0.00 0.15 0.00 80 1008.5
20260904155502 16 263 0.0 0.0 0.00 0.15 0.00 80 1008.4
20260904154953 16 263 0.0 4.8 0.00 0.15 0.00 80 1008.4
20260904154448 16 263 0.0 3.2 0.00 0.15 0.00 80 1008.4
20260904153947 16 263 0.0 0.0 0.00 0.15 0.00 80 1008.5
20260904153456 16 263 0.0 6.4 0.00 0.15 0.00 80 1008.5
20260904152949 16 263 1.6 6.4 0.00 0.15 0.00 80 1008.5
20260904152437 16 263 1.6 6.4 0.00 0.15 0.00 80 1008.6
20260904151937 16 263 1.6 6.4 0.00 0.15 0.00 80 1008.6
20260904151431 16 263 0.0 6.4 0.00 0.15 0.00 79 1008.6
20260904150928 16 263 0.0 1.6 0.00 0.15 0.00 79 1009.0
20260904150434 16 263 0.0 0.0 0.00 0.15 0.00 79 1009.0
20260904145918 16 263 0.0 1.6 0.00 0.15 0.00 78 1009.0
20260904145423 16 263 0.0 0.0 0.00 0.15 0.00 78 1008.6
20260904144257 16 263 0.0 0.0 0.00 0.15 0.00 78 1008.5
20260904143755 16 263 0.0 0.0 0.00 0.15 0.00 77 1008.5
20260904143241 16 263 0.0 0.0 0.00 0.15 0.00 77 1008.5
20260904142741 16 263 1.6 4.8 0.00 0.15 0.15 77 1009.0
20260904141640 16 263 1.6 9.7 0.00 0.15 0.15 76 1009.0
20260904141128 17 263 3.2 9.7 0.00 0.15 0.15 76 1008.5
20260904140001 17 263 3.2 9.7 0.00 0.13 0.13 74 1008.5
20260904135448 17 263 3.2 12.9 0.00 0.13 0.13 74 1008.6
20260904134932 17 263 1.6 12.9 0.00 0.13 0.13 74 1008.6
20260904134426 17 263 3.2 16.1 0.00 0.13 0.13 73 1008.6
20260904133915 17 263 3.2 16.1 0.00 0.13 0.13 73 1009.0
20260904133417 17 263 4.8 16.1 0.00 0.13 0.13 72 1009.0
20260904132923 17 263 4.8 16.1 0.00 0.13 0.13 72 1009.0
20260904132404 17 263 4.8 14.5 0.00 0.13 0.13 71 1008.5
20260904131905 17 263 4.8 16.1 0.00 0.13 0.13 71 1008.5
20260904130753 17 263 4.8 16.1 0.00 0.13 0.13 72 1008.3
20260904130238 17 263 4.8 16.1 0.00 0.13 0.13 72 1008.3
20260904125729 17 263 4.8 16.1 0.00 0.13 0.13 72 1008.2
20260904125227 17 263 4.8 17.7 0.00 0.13 0.13 71 1008.2
20260904124709 17 263 6.4 17.7 0.00 0.13 0.13 71 1008.2
20260904123546 17 263 4.8 19.3 0.00 0.13 0.13 70 1008.5
20260904123055 18 263 6.4 19.3 0.00 0.13 0.13 71 1008.5
20260904122540 17 263 6.4 19.3 0.00 0.13 0.13 71 1008.8
20260904122038 17 263 4.8 17.7 0.00 0.13 0.13 71 1008.8
20260904120936 17 263 4.8 16.1 0.00 0.13 0.13 71 1008.6
20260904115810 18 263 6.4 19.3 0.00 0.13 0.13 71 1009.0
20260904115251 18 263 6.4 19.3 0.00 0.13 0.13 71 1009.0
20260904114734 18 263 6.4 19.3 0.00 0.13 0.13 71 1009.0
20260904114230 18 263 6.4 17.7 0.00 0.13 0.13 71 1009.1
20260904113732 18 263 6.4 17.7 0.00 0.13 0.13 70 1009.1
20260904113217 18 263 6.4 19.3 0.00 0.13 0.13 70 1009.1
20260904112050 18 263 4.8 19.3 0.00 0.13 0.13 70 1009.0
20260904110906 18 263 6.4 20.9 0.00 0.13 0.13 69 1009.0
20260904110358 18 263 6.4 20.9 0.00 0.13 0.13 69 1009.0
20260904105843 18 263 6.4 24.1 0.00 0.13 0.13 69 1009.1
20260904105344 18 263 4.8 24.1 0.00 0.13 0.13 69 1009.1
20260904104832 18 263 6.4 24.1 0.00 0.13 0.13 70 1009.1
20260904104323 18 263 6.4 24.1 0.00 0.13 0.13 70 1009.1
20260904103152 18 263 4.8 16.1 0.00 0.13 0.13 71 1009.1
20260904102638 18 263 4.8 16.1 0.00 0.13 0.13 72 1009.1